Location: Asheville, NC
(35.6000°N, 82.5500°W)
Time: 06:39:15
(UTC-04:00)

STRAND 1 - Visible Passes

Search period start: 22 July 2018 00:00
Search period end: 01 August 2018 00:00
Orbit: 768 x 781 km, 98.5° (Epoch: 21 July)

Date Brightness Start Highest point End Pass type
(mag) Time Alt. Az. Time Alt. Az. Time Alt. Az.
22 Jul ? 22:43:42 10° NW 22:44:54 11° WNW 22:46:05 10° WNW visible
23 Jul ? 22:07:25 10° NNW 22:11:23 23° WNW 22:15:20 10° WSW visible
24 Jul ? 21:32:47 10° N 21:37:42 49° WNW 21:42:34 10° SW visible
25 Jul ? 20:58:44 10° NNE 21:03:51 76° ESE 21:08:55 10° S visible
25 Jul ? 22:40:41 10° NW 22:42:19 11° WNW 22:43:58 10° W visible
26 Jul ? 22:04:44 10° NNW 22:08:48 24° WNW 22:12:51 10° WSW visible
27 Jul ? 21:30:09 10° N 21:35:06 52° WNW 21:40:01 10° SSW visible
28 Jul ? 22:37:46 10° NW 22:39:45 12° WNW 22:41:44 10° W visible
29 Jul ? 22:02:03 10° NNW 22:06:13 26° WNW 22:10:21 10° WSW visible
30 Jul ? 21:27:31 10° N 21:32:30 55° WNW 21:37:26 10° SSW visible
31 Jul ? 20:53:32 10° NNE 20:58:38 67° ESE 21:03:39 10° S visible
31 Jul ? 22:34:54 10° NW 22:37:11 13° WNW 22:39:27 10° W visible
